Location: Castillon
(43.0896°N, 0.2156°E)
Time: 20:08:50
(UTC+00:00)

SL-08 R/B - Pass Details

Date: 16 June 2021
Orbit: 943 x 1009 km, 82.9° (Epoch: 31 July)

Event Time Altitude Azimuth Distance (km) Brightness Sun altitude
Rises 21:56:45 0° 353° (N) 3,742 8.8 -17.7°
Reaches altitude 10° 21:59:19 10° 354° (N) 2,782 7.9 -18.0°
Maximum altitude 22:05:44 80° 82° (E) 1,010 4.5 -18.5°
Enters shadow 22:09:02 30° 166° (SSE) 1,675 5.2 -18.8°
